Regional Weather Roundup
Issued by NWS

Home | Current Version | Previous Version | Graphics & Text | Print | Product List | Glossary On
Versions: 1 2 3 4 5 6 7 8 9 10 11 12 13 14 15 16 17 18 19 20 21 22 23 24 25 26 27 28 29 30 31 32 33 34 35 36 37 38 39 40 41 42 43 44 45 46 47 48 49 50
000
ASUS43 KIND 131509
RWRIN

WEATHER ROUNDUP FOR INDIANA
NATIONAL WEATHER SERVICE INDIANAPOLIS IN
1100 AM EDT SUN JUL 13 2014

NOTE: "FAIR" INDICATES FEW OR NO CLOUDS BELOW 12,000 FEET WITH NO
SIGNIFICANT WEATHER AND/OR OBSTRUCTIONS TO VISIBILITY.

* - STATION DOES NOT REPORT WEATHER SUCH AS PRECIPITATION OR FOG.

+ - STATION NOT QUALITY CONTROLLED BY THE NATIONAL WEATHER SERVICE.
    USE DATA WITH CAUTION...ESPECIALLY DEWPOINT AND RELATIVE
    HUMIDITY OBSERVATIONS.

INZ001>003-010>013-019-020-131600-
NORTHWEST INDIANA

CITY           SKY/WX    TMP DP  RH WIND       PRES   REMARKS
GARY /AIRPORT/ PTSUNNY   75  68  78 W12       29.95S
KNOX *+        CLOUDY    74  67  77 NW7       29.94S
LA PORTE +     PTSUNNY   72  65  79 NW6       29.96S
MICHIGAN CITY+ PTSUNNY   72  64  78 NW6       29.96S
MONTICELLO +   CLOUDY    75  71  87 NW8       29.94S
RENSSELAER +   CLOUDY    73  70  88 NW10      29.96R
VALPARAISO     PTSUNNY   74  66  76 NW6       29.96R

$$

LMZ046-743>745-131600-
SOUTHERN LAKE MICHIGAN

STATION/POSITION TIME  TEMP WIND        PRES
                       AIR  DIR/SP/G
                 (UTC) (F)  (DEG/KT/KT) (MB)
MICHIGAN CITY    1500   71  260/  8/  9   N/A

$$

INZ004-005-014>016-021>024-131600-
NORTH CENTRAL INDIANA

CITY           SKY/WX    TMP DP  RH WIND       PRES   REMARKS
GOSHEN         PTSUNNY   75  67  76 NW14      29.93S
LOGANSPORT +   CLOUDY    75  70  83 NW8       29.94F
PERU/GRISSOM   CLOUDY    77  76  99 NW16      29.93F
ROCHESTER +    CLOUDY    77  70  78 NW7       29.94S
SOUTH BEND     PTSUNNY   74  63  68 NW9       29.95S
WARSAW +       CLOUDY    72  68  88 NW9       29.94R

$$

INZ006>009-017-018-025>027-131600-
NORTHEAST INDIANA

CITY           SKY/WX    TMP DP  RH WIND       PRES   REMARKS
ANGOLA *+      PTSUNNY   73  66  78 NW9       29.92S
AUBURN +       PTSUNNY   77  68  73 W12       29.92F
FORT WAYNE     CLOUDY    76  69  79 NW8       29.92F
HUNTINGTON +   CLOUDY    75  71  85 W10       29.93S

$$

INZ028-029-035-036-043>045-051>053-131600-
WEST CENTRAL INDIANA

CITY           SKY/WX    TMP DP  RH WIND       PRES   REMARKS
GREENCASTLE +  PTSUNNY   77  68  73 W10G16    29.98S
LAFAYETTE      PTSUNNY   76  71  85 NW10      29.94S
TERRE HAUTE    PTSUNNY   80  70  71 NW9       29.96F

$$

INZ030>032-037>040-046>048-054>057-064-065-131600-
CENTRAL INDIANA

CITY           SKY/WX    TMP DP  RH WIND       PRES   REMARKS
CP ATTERBURY + CLOUDY    81  72  74 W7        29.98R
COLUMBUS       PTSUNNY   82  75  78 W12       29.97S
GREENWOOD *+   CLOUDY    81  75  83 W12       29.98
INDIANAPOLIS   CLOUDY    78  69  73 SW13      29.96F
-EAGLE CREEK   PTSUNNY   78  69  73 W13G20    29.96F
KOKOMO *+      CLOUDY    75  70  83 W12       29.94F
MARION +       CLOUDY    75  69  82 W10       29.96S
MT COMFORT *+  CLOUDY    79  73  83 W14G20    29.98S
SHELBYVILLE    CLOUDY    80  72  76 W12       29.98R
ZIONSVILLE +   PTSUNNY   77  67  72 W13G20    29.98S

$$

INZ033-034-041-042-049-050-058-059-131600-
EAST CENTRAL INDIANA

CITY           SKY/WX    TMP DP  RH WIND       PRES   REMARKS
MUNCIE         CLOUDY    77  68  73 W13G23    29.96S

$$

INZ060-061-067>069-081>083-085>088-131600-
SOUTHWEST INDIANA

CITY           SKY/WX    TMP DP  RH WIND       PRES   REMARKS
EVANSVILLE     SUNNY     84  73  69 SW10      30.01F
HUNTINGBURG *+ MOSUNNY   84  73  70 SW13      30.01F
WASHINGTON +   MOSUNNY   83  75  77 SW9       29.97F

$$

INZ062-063-066-070>080-084-089>092-131600-
SOUTH CENTRAL AND SOUTHEAST INDIANA

CITY           SKY/WX    TMP DP  RH WIND       PRES   REMARKS
BLOOMINGTON    PTSUNNY   82  74  76 W10       29.98S
NORTH VERNON + PTSUNNY   82  75  78 S14       29.98

$$




USA.gov is the U.S. government's official web portal to all federal, state and local government web resources and services.